CW2551 Weather Reports


Display with metric or nautical units.
time (UTC)temp
F
wind
direction
speed
MPH
gust
MPH
rain 1hr
in
rain 24hr
in
rain mn
in
humidity
%
barometer
mb
20210515165605 69 15 1.0 3.0 0.00 0.00 0.00 55 1013.6
20210515165105 68 15 3.0 6.0 0.00 0.00 0.00 53 1013.7
20210515165013 68 12 3.0 7.0 0.00 0.00 0.00 52 1013.8
20210515164604 68 12 3.0 7.0 0.00 0.00 0.00 52 1013.8
20210515164104 68 14 2.0 5.0 0.00 0.00 0.00 54 1013.8
20210515164014 67 17 1.0 7.0 0.00 0.00 0.00 54 1013.8
20210515163604 67 17 1.0 7.0 0.00 0.00 0.00 54 1013.8
20210515163104 66 25 2.0 6.0 0.00 0.00 0.00 53 1013.8
20210515163015 67 30 3.0 6.0 0.00 0.00 0.00 55 1013.9
20210515162604 67 30 3.0 6.0 0.00 0.00 0.00 55 1013.9
20210515162104 65 51 2.0 6.0 0.00 0.00 0.00 58 1013.9
20210515162014 66 61 0.0 3.0 0.00 0.00 0.00 56 1013.9
20210515161604 66 61 0.0 3.0 0.00 0.00 0.00 56 1013.9
20210515161104 65 61 1.0 3.0 0.00 0.00 0.00 58 1014.0
20210515161013 64 68 0.0 3.0 0.00 0.00 0.00 59 1014.1
20210515160604 64 68 0.0 3.0 0.00 0.00 0.00 59 1014.1
20210515160105 64 69 1.0 3.0 0.00 0.00 0.00 59 1014.1
20210515160014 65 69 3.0 5.0 0.00 0.00 0.00 58 1014.2
20210515155604 65 69 3.0 5.0 0.00 0.00 0.00 58 1014.2
20210515155104 64 96 1.0 3.0 0.00 0.00 0.00 59 1014.1
20210515155014 63 96 1.0 3.0 0.00 0.00 0.00 59 1014.1
20210515154604 63 96 1.0 3.0 0.00 0.00 0.00 59 1014.1
20210515154104 64 98 2.0 3.0 0.00 0.00 0.00 62 1014.1
20210515154014 63 98 0.0 2.0 0.00 0.00 0.00 64 1014.1
20210515153605 63 98 0.0 2.0 0.00 0.00 0.00 64 1014.1
20210515153104 62 98 0.0 0.0 0.00 0.00 0.00 64 1014.1
20210515153014 62 98 0.0 0.0 0.00 0.00 0.00 63 1014.2
20210515152604 62 98 0.0 0.0 0.00 0.00 0.00 63 1014.2
20210515152104 62 98 1.0 3.0 0.00 0.00 0.00 64 1014.2
20210515152014 62 98 0.0 2.0 0.00 0.00 0.00 64 1014.1
20210515151604 62 98 0.0 2.0 0.00 0.00 0.00 64 1014.1
20210515151105 61 98 1.0 3.0 0.00 0.00 0.00 66 1014.2
20210515151013 61 98 0.0 0.0 0.00 0.00 0.00 67 1014.2
20210515150604 61 98 0.0 0.0 0.00 0.00 0.00 67 1014.2
20210515150104 60 98 0.0 0.0 0.00 0.00 0.00 68 1014.2
20210515150014 60 98 1.0 3.0 0.00 0.00 0.00 70 1014.3
20210515145604 60 98 1.0 3.0 0.00 0.00 0.00 70 1014.3
20210515145104 60 98 0.0 0.0 0.00 0.00 0.00 68 1014.2
20210515145014 60 98 0.0 2.0 0.00 0.00 0.00 69 1014.3
20210515144604 60 98 0.0 2.0 0.00 0.00 0.00 69 1014.3
20210515144104 60 98 1.0 2.0 0.00 0.00 0.00 69 1014.3
20210515144013 59 98 0.0 0.0 0.00 0.00 0.00 70 1014.3
20210515143605 59 98 0.0 0.0 0.00 0.00 0.00 70 1014.3
20210515143104 59 98 0.0 0.0 0.00 0.00 0.00 73 1014.3
20210515143014 58 98 0.0 0.0 0.00 0.00 0.00 74 1014.4
20210515142604 58 98 0.0 0.0 0.00 0.00 0.00 74 1014.4
20210515142105 58 98 0.0 0.0 0.00 0.00 0.00 74 1014.3
20210515142014 57 98 0.0 0.0 0.00 0.00 0.00 75 1014.2
20210515141604 57 98 0.0 0.0 0.00 0.00 0.00 75 1014.2
20210515141104 57 101 0.0 0.0 0.00 0.00 0.00 76 1014.2
20210515141014 56 101 0.0 0.0 0.00 0.00 0.00 79 1014.1
20210515140605 56 101 0.0 0.0 0.00 0.00 0.00 79 1014.1
20210515140105 56 101 0.0 0.0 0.00 0.00 0.00 80 1014.1
20210515140014 55 101 0.0 0.0 0.00 0.00 0.00 80 1014.1
20210515135604 55 101 0.0 0.0 0.00 0.00 0.00 80 1014.1
20210515135104 54 101 0.0 0.0 0.00 0.00 0.00 83 1014.1
20210515135013 53 101 0.0 0.0 0.00 0.00 0.00 85 1014.1
20210515134604 53 101 0.0 0.0 0.00 0.00 0.00 85 1014.1
20210515134105 52 101 0.0 0.0 0.00 0.00 0.00 86 1014.1
20210515134014 51 101 0.0 0.0 0.00 0.00 0.00 88 1014.1
20210515133604 51 101 0.0 0.0 0.00 0.00 0.00 88 1014.1
20210515133105 49 101 0.0 0.0 0.00 0.00 0.00 87 1014.0
20210515133014 50 101 0.0 0.0 0.00 0.00 0.00 86 1014.0
20210515132604 50 101 0.0 0.0 0.00 0.00 0.00 86 1014.0
20210515132104 50 101 0.0 0.0 0.00 0.00 0.00 85 1014.0
20210515132013 50 101 0.0 0.0 0.00 0.00 0.00 86 1013.9
20210515131604 50 101 0.0 0.0 0.00 0.00 0.00 86 1013.9
20210515131105 51 101 0.0 0.0 0.00 0.00 0.00 86 1014.0
20210515131014 50 101 0.0 0.0 0.00 0.00 0.00 87 1013.9
20210515130605 50 101 0.0 0.0 0.00 0.00 0.00 87 1013.9
20210515130105 50 101 0.0 0.0 0.00 0.00 0.00 87 1013.9
20210515130014 50 101 0.0 0.0 0.00 0.00 0.00 87 1013.8
20210515125604 50 101 0.0 0.0 0.00 0.00 0.00 87 1013.8
20210515125104 50 101 0.0 0.0 0.00 0.00 0.00 85 1013.9
20210515125013 50 101 0.0 0.0 0.00 0.00 0.00 85 1013.8
20210515124605 50 101 0.0 0.0 0.00 0.00 0.00 85 1013.8
20210515124104 51 101 0.0 0.0 0.00 0.00 0.00 85 1013.9
20210515124014 52 101 0.0 0.0 0.00 0.00 0.00 84 1013.8
20210515123604 52 101 0.0 0.0 0.00 0.00 0.00 84 1013.8
20210515123104 53 101 0.0 0.0 0.00 0.00 0.00 83 1013.8
20210515123014 53 101 0.0 0.0 0.00 0.00 0.00 81 1013.8
20210515122604 53 101 0.0 0.0 0.00 0.00 0.00 81 1013.8
20210515122104 54 101 0.0 0.0 0.00 0.00 0.00 81 1013.7
20210515122014 54 101 0.0 0.0 0.00 0.00 0.00 81 1013.7
20210515121604 54 101 0.0 0.0 0.00 0.00 0.00 81 1013.7
20210515121104 54 101 0.0 0.0 0.00 0.00 0.00 80 1013.7
20210515121013 54 101 0.0 0.0 0.00 0.00 0.00 79 1013.7
20210515120604 54 101 0.0 0.0 0.00 0.00 0.00 79 1013.7
20210515120104 55 101 0.0 0.0 0.00 0.00 0.00 78 1013.7
20210515120013 56 101 0.0 0.0 0.00 0.00 0.00 78 1013.7
20210515115604 56 101 0.0 0.0 0.00 0.00 0.00 78 1013.7
20210515115104 55 101 0.0 0.0 0.00 0.00 0.00 79 1013.7
20210515115013 55 101 0.0 0.0 0.00 0.00 0.00 80 1013.6
20210515114604 55 101 0.0 0.0 0.00 0.00 0.00 80 1013.6
20210515114104 55 101 0.0 0.0 0.00 0.00 0.00 80 1013.7
20210515114013 55 101 0.0 0.0 0.00 0.00 0.00 80 1013.6
20210515113604 55 101 0.0 0.0 0.00 0.00 0.00 80 1013.6
20210515113104 54 101 0.0 0.0 0.00 0.00 0.00 79 1013.6
20210515113013 55 101 0.0 0.0 0.00 0.00 0.00 79 1013.5
20210515112604 55 101 0.0 0.0 0.00 0.00 0.00 79 1013.5
20210515112104 56 101 0.0 0.0 0.00 0.00 0.00 77 1013.6
20210515112013 55 101 0.0 0.0 0.00 0.00 0.00 78 1013.6
20210515111604 55 101 0.0 0.0 0.00 0.00 0.00 78 1013.6
20210515111104 56 101 0.0 0.0 0.00 0.00 0.00 76 1013.6
20210515111013 56 101 0.0 0.0 0.00 0.00 0.00 76 1013.6
20210515110604 56 101 0.0 0.0 0.00 0.00 0.00 76 1013.6
20210515110105 56 101 0.0 0.0 0.00 0.00 0.00 77 1013.5
20210515110013 55 101 0.0 0.0 0.00 0.00 0.00 77 1013.5
20210515105604 55 101 0.0 0.0 0.00 0.00 0.00 77 1013.5
20210515105104 55 101 0.0 0.0 0.00 0.00 0.00 77 1013.4
20210515105013 56 101 0.0 0.0 0.00 0.00 0.00 76 1013.3
20210515104603 56 101 0.0 0.0 0.00 0.00 0.00 76 1013.3
20210515104104 56 101 0.0 0.0 0.00 0.00 0.00 76 1013.3
20210515104014 56 101 0.0 0.0 0.00 0.00 0.00 76 1013.3
20210515103604 56 101 0.0 0.0 0.00 0.00 0.00 76 1013.3
20210515103104 56 101 0.0 0.0 0.00 0.00 0.00 76 1013.2
20210515103013 56 101 0.0 0.0 0.00 0.00 0.00 76 1013.2
20210515102604 56 101 0.0 0.0 0.00 0.00 0.00 76 1013.2
20210515102103 57 101 0.0 0.0 0.00 0.00 0.00 74 1013.1
20210515102014 57 101 0.0 0.0 0.00 0.00 0.00 74 1013.1
20210515101604 57 101 0.0 0.0 0.00 0.00 0.00 74 1013.1
20210515101104 57 101 0.0 0.0 0.00 0.00 0.00 74 1013.1
20210515101013 57 101 0.0 0.0 0.00 0.00 0.00 73 1013.2
20210515100604 57 101 0.0 0.0 0.00 0.00 0.00 73 1013.2
20210515100104 57 101 0.0 0.0 0.00 0.00 0.00 74 1013.2
20210515100013 56 101 0.0 0.0 0.00 0.00 0.00 75 1013.2
20210515095603 56 101 0.0 0.0 0.00 0.00 0.00 75 1013.2
20210515095104 56 101 0.0 0.0 0.00 0.00 0.00 75 1013.1
20210515095013 56 101 0.0 0.0 0.00 0.00 0.00 76 1013.1
20210515094604 56 101 0.0 0.0 0.00 0.00 0.00 76 1013.1
20210515094103 55 101 0.0 0.0 0.00 0.00 0.00 77 1013.1
20210515094013 54 101 0.0 0.0 0.00 0.00 0.00 79 1013.1
20210515093604 54 101 0.0 0.0 0.00 0.00 0.00 79 1013.1
20210515093103 53 101 0.0 0.0 0.00 0.00 0.00 79 1013.1
20210515093014 53 101 0.0 0.0 0.00 0.00 0.00 79 1013.1
20210515092603 53 101 0.0 0.0 0.00 0.00 0.00 79 1013.1
20210515092103 53 101 0.0 0.0 0.00 0.00 0.00 78 1013.1
20210515092012 53 101 0.0 0.0 0.00 0.00 0.00 78 1013.2
20210515091604 53 101 0.0 0.0 0.00 0.00 0.00 78 1013.2
20210515091104 54 101 0.0 0.0 0.00 0.00 0.00 78 1013.2
20210515091012 54 101 0.0 0.0 0.00 0.00 0.00 78 1013.3
20210515090604 54 101 0.0 0.0 0.00 0.00 0.00 78 1013.3
20210515090105 53 101 0.0 0.0 0.00 0.00 0.00 78 1013.3
20210515090012 54 101 0.0 0.0 0.00 0.00 0.00 76 1013.3
20210515085604 54 101 0.0 0.0 0.00 0.00 0.00 76 1013.3
20210515085104 54 101 0.0 0.0 0.00 0.00 0.00 76 1013.3
20210515085013 54 101 0.0 0.0 0.00 0.00 0.00 76 1013.3
20210515084605 54 101 0.0 0.0 0.00 0.00 0.00 76 1013.3
20210515084104 55 101 0.0 0.0 0.00 0.00 0.00 73 1013.4
20210515084013 54 101 0.0 0.0 0.00 0.00 0.00 77 1013.3
20210515083605 54 101 0.0 0.0 0.00 0.00 0.00 77 1013.3
20210515083104 54 101 0.0 0.0 0.00 0.00 0.00 78 1013.3
20210515083013 53 101 0.0 0.0 0.00 0.00 0.00 77 1013.3
20210515082604 53 101 0.0 0.0 0.00 0.00 0.00 77 1013.3
20210515082104 54 101 0.0 0.0 0.00 0.00 0.00 75 1013.3
20210515082014 55 101 0.0 0.0 0.00 0.00 0.00 75 1013.3
20210515081604 55 101 0.0 0.0 0.00 0.00 0.00 75 1013.3
20210515081104 54 101 0.0 0.0 0.00 0.00 0.00 77 1013.3
20210515081013 54 101 0.0 0.0 0.00 0.00 0.00 75 1013.2
20210515080604 54 101 0.0 0.0 0.00 0.00 0.00 75 1013.2
20210515080104 55 101 0.0 0.0 0.00 0.00 0.00 74 1013.2
20210515080013 55 101 0.0 0.0 0.00 0.00 0.00 74 1013.2
20210515075604 55 101 0.0 0.0 0.00 0.00 0.00 74 1013.2
20210515075104 55 101 0.0 0.0 0.00 0.00 0.00 73 1013.2
20210515075013 56 101 0.0 0.0 0.00 0.00 0.00 72 1013.2
20210515074604 56 101 0.0 0.0 0.00 0.00 0.00 72 1013.2
20210515074104 56 101 0.0 0.0 0.00 0.00 0.00 73 1013.2
20210515074013 56 101 0.0 0.0 0.00 0.00 0.00 72 1013.1
20210515073604 56 101 0.0 0.0 0.00 0.00 0.00 72 1013.1
20210515073104 56 101 0.0 0.0 0.00 0.00 0.00 72 1013.0
20210515073014 56 101 0.0 0.0 0.00 0.00 0.00 72 1013.0
20210515072604 56 101 0.0 0.0 0.00 0.00 0.00 72 1013.0
20210515072104 57 101 0.0 0.0 0.00 0.00 0.00 70 1013.0
20210515072013 58 101 0.0 0.0 0.00 0.00 0.00 67 1013.0
20210515071604 58 101 0.0 0.0 0.00 0.00 0.00 67 1013.0
20210515071107 58 101 0.0 0.0 0.00 0.00 0.00 68 1012.9
20210515071013 59 101 0.0 0.0 0.00 0.00 0.00 68 1012.9
20210515070604 59 101 0.0 0.0 0.00 0.00 0.00 68 1012.9
20210515070105 59 101 0.0 0.0 0.00 0.00 0.00 68 1012.9
20210515070014 60 101 0.0 0.0 0.00 0.00 0.00 66 1012.8
20210515065604 60 101 0.0 0.0 0.00 0.00 0.00 66 1012.8
20210515065104 60 101 0.0 0.0 0.00 0.00 0.00 66 1012.9
20210515065013 60 101 0.0 0.0 0.00 0.00 0.00 64 1012.8
20210515064604 60 101 0.0 0.0 0.00 0.00 0.00 64 1012.8
20210515064104 61 101 0.0 0.0 0.00 0.00 0.00 63 1012.8
20210515064014 61 101 0.0 0.0 0.00 0.00 0.00 64 1012.8
20210515063605 61 101 0.0 0.0 0.00 0.00 0.00 64 1012.8
20210515063104 60 101 0.0 0.0 0.00 0.00 0.00 65 1012.7
20210515063013 60 101 0.0 0.0 0.00 0.00 0.00 66 1012.7
20210515062604 60 101 0.0 0.0 0.00 0.00 0.00 66 1012.7
20210515062105 60 101 0.0 0.0 0.00 0.00 0.00 65 1012.6
20210515062013 60 101 0.0 0.0 0.00 0.00 0.00 63 1012.5
20210515061604 60 101 0.0 0.0 0.00 0.00 0.00 63 1012.5
20210515061104 61 101 0.0 0.0 0.00 0.00 0.00 63 1012.4
20210515061014 61 101 0.0 0.0 0.00 0.00 0.00 62 1012.4
20210515060605 61 101 0.0 0.0 0.00 0.00 0.00 62 1012.4
20210515060104 62 101 0.0 0.0 0.00 0.00 0.00 61 1012.4
20210515060013 62 101 0.0 0.0 0.00 0.00 0.00 60 1012.4
20210515055604 62 101 0.0 0.0 0.00 0.00 0.00 60 1012.4
20210515055104 62 101 0.0 0.0 0.00 0.00 0.00 61 1012.5
20210515055013 62 101 0.0 0.0 0.00 0.00 0.00 61 1012.5
20210515054605 62 101 0.0 0.0 0.00 0.00 0.00 61 1012.5
20210515054104 63 101 0.0 0.0 0.00 0.00 0.00 58 1012.5
20210515054013 64 101 0.0 0.0 0.00 0.00 0.00 57 1012.6
20210515053604 64 101 0.0 0.0 0.00 0.00 0.00 57 1012.6
20210515053104 64 101 0.0 0.0 0.00 0.00 0.00 56 1012.6
20210515053013 64 101 0.0 0.0 0.00 0.00 0.00 56 1012.6
20210515052604 64 101 0.0 0.0 0.00 0.00 0.00 56 1012.6
20210515052104 64 101 0.0 0.0 0.00 0.00 0.00 55 1012.6
20210515052013 65 101 0.0 3.0 0.00 0.00 0.00 54 1012.7
20210515051604 65 101 0.0 3.0 0.00 0.00 0.00 54 1012.7
20210515051105 66 101 0.0 2.0 0.00 0.00 0.00 52 1012.7
20210515051014 67 355 0.0 0.0 0.00 0.00 0.00 50 1012.6
20210515050604 67 355 0.0 0.0 0.00 0.00 0.00 50 1012.6
20210515050104 67 354 0.0 0.0 0.00 0.00 0.00 50 1012.7
20210515050014 68 344 0.0 0.0 0.00 0.00 0.00 50 1012.6
20210515045604 68 344 0.0 0.0 0.00 0.00 0.00 50 1012.6
20210515045104 68 344 0.0 0.0 0.00 0.00 0.00 49 1012.6
20210515045013 68 345 0.0 3.0 0.00 0.00 0.00 48 1012.5
20210515044605 68 345 0.0 3.0 0.00 0.00 0.00 48 1012.5
20210515044104 68 343 1.0 3.0 0.00 0.00 0.00 49 1012.4
20210515044013 68 343 1.0 5.0 0.00 0.00 0.00 49 1012.3
20210515043604 68 343 1.0 5.0 0.00 0.00 0.00 49 1012.3
20210515043105 68 329 1.0 3.0 0.00 0.00 0.00 48 1012.3
20210515043014 69 340 0.0 3.0 0.00 0.00 0.00 48 1012.2
20210515042604 69 340 0.0 3.0 0.00 0.00 0.00 48 1012.2
20210515042104 69 2 0.0 5.0 0.00 0.00 0.00 47 1012.2
20210515042014 69 323 1.0 5.0 0.00 0.00 0.00 48 1012.1
20210515041604 69 323 1.0 5.0 0.00 0.00 0.00 48 1012.1
20210515041103 69 342 1.0 6.0 0.00 0.00 0.00 48 1012.0
20210515041013 69 312 1.0 5.0 0.00 0.00 0.00 47 1012.0
20210515040604 69 312 1.0 5.0 0.00 0.00 0.00 47 1012.0
20210515040104 69 311 0.0 5.0 0.00 0.00 0.00 47 1012.0
20210515040014 69 321 1.0 5.0 0.00 0.00 0.00 46 1012.0
20210515035604 69 321 1.0 5.0 0.00 0.00 0.00 46 1012.0
20210515035104 70 322 0.0 0.0 0.00 0.00 0.00 46 1011.9
20210515035014 70 334 0.0 3.0 0.00 0.00 0.00 45 1011.9
20210515034604 70 334 0.0 3.0 0.00 0.00 0.00 45 1011.9
20210515034104 70 339 1.0 8.0 0.00 0.00 0.00 44 1011.8
20210515034013 70 327 2.0 5.0 0.00 0.00 0.00 44 1011.8
20210515033604 70 327 2.0 5.0 0.00 0.00 0.00 44 1011.8
20210515033104 71 338 0.0 3.0 0.00 0.00 0.00 43 1011.9
20210515033013 71 331 2.0 8.0 0.00 0.00 0.00 42 1011.8
20210515032605 71 331 2.0 8.0 0.00 0.00 0.00 42 1011.8
20210515032105 71 4 4.0 10.0 0.00 0.00 0.00 41 1011.7
20210515032013 72 347 2.0 9.0 0.00 0.00 0.00 41 1011.6
20210515031605 72 347 2.0 9.0 0.00 0.00 0.00 41 1011.6
20210515031104 72 5 5.0 15.0 0.00 0.00 0.00 40 1011.5
20210515031014 72 0 3.0 9.0 0.00 0.00 0.00 40 1011.4
20210515030604 72 0 3.0 9.0 0.00 0.00 0.00 40 1011.4
20210515030105 72 14 3.0 10.0 0.00 0.00 0.00 41 1011.4
20210515030014 72 310 2.0 8.0 0.00 0.00 0.00 41 1011.3
20210515025604 72 310 2.0 8.0 0.00 0.00 0.00 41 1011.3
20210515025104 72 304 2.0 7.0 0.00 0.00 0.00 40 1011.2
20210515025014 72 343 3.0 8.0 0.00 0.00 0.00 40 1011.2
20210515024604 72 343 3.0 8.0 0.00 0.00 0.00 40 1011.2
20210515024104 73 333 2.0 10.0 0.00 0.00 0.00 40 1011.0
20210515024013 73 328 2.0 8.0 0.00 0.00 0.00 39 1010.9
20210515023604 73 328 2.0 8.0 0.00 0.00 0.00 39 1010.9
20210515023104 73 310 1.0 3.0 0.00 0.00 0.00 39 1011.0
20210515023014 73 304 2.0 12.0 0.00 0.00 0.00 39 1010.9
20210515022605 73 304 2.0 12.0 0.00 0.00 0.00 39 1010.9
20210515022104 73 330 3.0 10.0 0.00 0.00 0.00 38 1010.9
20210515022014 74 334 1.0 8.0 0.00 0.00 0.00 39 1010.8
20210515021604 74 334 1.0 8.0 0.00 0.00 0.00 39 1010.8
20210515021105 74 294 2.0 9.0 0.00 0.00 0.00 39 1010.8
20210515021015 74 342 3.0 9.0 0.00 0.00 0.00 39 1010.8
20210515020604 74 342 3.0 9.0 0.00 0.00 0.00 39 1010.8
20210515020104 74 6 3.0 8.0 0.00 0.00 0.00 39 1010.8
20210515020013 75 341 4.0 10.0 0.00 0.00 0.00 40 1010.7
20210515015604 75 341 4.0 10.0 0.00 0.00 0.00 40 1010.7
20210515015105 75 339 5.0 12.0 0.00 0.00 0.00 40 1010.7
20210515015013 75 65 3.0 6.0 0.00 0.00 0.00 40 1010.6
20210515014604 75 65 3.0 6.0 0.00 0.00 0.00 40 1010.6
20210515014104 76 269 3.0 9.0 0.00 0.00 0.00 40 1010.4
20210515014014 75 276 2.0 8.0 0.00 0.00 0.00 40 1010.3
20210515013604 75 276 2.0 8.0 0.00 0.00 0.00 40 1010.3
20210515013104 76 313 2.0 8.0 0.00 0.00 0.00 40 1010.3
20210515013014 76 347 3.0 10.0 0.00 0.00 0.00 40 1010.2
20210515012604 76 347 3.0 10.0 0.00 0.00 0.00 40 1010.2
20210515012104 76 322 3.0 8.0 0.00 0.00 0.00 40 1010.3
20210515012014 77 348 5.0 12.0 0.00 0.00 0.00 38 1010.1
20210515011604 77 348 5.0 12.0 0.00 0.00 0.00 38 1010.1
20210515011104 77 353 6.0 12.0 0.00 0.00 0.00 38 1010.1
20210515011014 78 21 6.0 12.0 0.00 0.00 0.00 38 1010.0
20210515010605 78 21 6.0 12.0 0.00 0.00 0.00 38 1010.0
20210515010104 78 0 6.0 12.0 0.00 0.00 0.00 38 1010.0
20210515010013 78 311 4.0 9.0 0.00 0.00 0.00 38 1009.9
20210515005605 78 311 4.0 9.0 0.00 0.00 0.00 38 1009.9
20210515005104 78 296 4.0 13.0 0.00 0.00 0.00 38 1009.9
20210515005014 79 34 5.0 14.0 0.00 0.00 0.00 36 1009.8
20210515004605 79 34 5.0 14.0 0.00 0.00 0.00 36 1009.8
20210515004104 80 314 6.0 14.0 0.00 0.00 0.00 35 1009.8
20210515004014 80 335 4.0 10.0 0.00 0.00 0.00 35 1009.7
20210515003604 80 335 4.0 10.0 0.00 0.00 0.00 35 1009.7
20210515003105 80 338 3.0 9.0 0.00 0.00 0.00 35 1009.7
20210515003013 80 269 2.0 6.0 0.00 0.00 0.00 35 1009.5
20210515002604 80 269 2.0 6.0 0.00 0.00 0.00 35 1009.5
20210515002104 79 262 2.0 8.0 0.00 0.00 0.00 34 1009.5
20210515002013 80 263 2.0 12.0 0.00 0.00 0.00 36 1009.5
20210515001605 80 263 2.0 12.0 0.00 0.00 0.00 36 1009.5
20210515001104 80 254 5.0 12.0 0.00 0.00 0.00 34 1009.6
20210515001013 80 272 3.0 12.0 0.00 0.00 0.00 34 1009.6
20210515000604 80 272 3.0 12.0 0.00 0.00 0.00 34 1009.6
20210515000105 80 293 4.0 12.0 0.00 0.00 0.00 33 1009.6
20210515000014 81 263 3.0 12.0 0.00 0.00 0.00 32 1009.6
20210514235604 81 263 3.0 12.0 0.00 0.00 0.00 32 1009.6
20210514235104 81 264 2.0 10.0 0.00 0.00 0.00 34 1009.6
20210514235013 81 327 4.0 8.0 0.00 0.00 0.00 32 1009.6
20210514234604 81 327 4.0 8.0 0.00 0.00 0.00 32 1009.6
20210514234104 81 284 1.0 9.0 0.00 0.00 0.00 32 1009.6
20210514234014 81 345 5.0 12.0 0.00 0.00 0.00 31 1009.6
20210514233604 81 345 5.0 12.0 0.00 0.00 0.00 31 1009.6
20210514233104 80 354 5.0 12.0 0.00 0.00 0.00 31 1009.7
20210514233014 81 356 5.0 14.0 0.00 0.00 0.00 32 1009.7
20210514232605 81 356 5.0 14.0 0.00 0.00 0.00 32 1009.7
20210514232104 81 309 3.0 10.0 0.00 0.00 0.00 31 1009.8
20210514232013 81 251 3.0 10.0 0.00 0.00 0.00 32 1009.8
20210514231605 81 251 3.0 10.0 0.00 0.00 0.00 32 1009.8
20210514231105 82 313 6.0 10.0 0.00 0.00 0.00 31 1009.8
20210514231014 81 336 5.0 12.0 0.00 0.00 0.00 33 1009.8
20210514230604 81 336 5.0 12.0 0.00 0.00 0.00 33 1009.8
20210514230104 81 261 4.0 12.0 0.00 0.00 0.00 32 1009.8
20210514230013 82 278 3.0 10.0 0.00 0.00 0.00 33 1009.8
20210514225604 82 278 3.0 10.0 0.00 0.00 0.00 33 1009.8
20210514225104 81 247 3.0 13.0 0.00 0.00 0.00 33 1009.9
20210514225014 81 338 6.0 12.0 0.00 0.00 0.00 33 1010.0
20210514224604 81 338 6.0 12.0 0.00 0.00 0.00 33 1010.0
20210514224103 82 323 5.0 13.0 0.00 0.00 0.00 33 1010.1
20210514224014 81 358 5.0 10.0 0.00 0.00 0.00 33 1010.2
20210514223605 81 358 5.0 10.0 0.00 0.00 0.00 33 1010.2
20210514223105 81 320 2.0 9.0 0.00 0.00 0.00 34 1010.3
20210514223014 82 349 3.0 9.0 0.00 0.00 0.00 35 1010.4
20210514222606 82 349 3.0 9.0 0.00 0.00 0.00 35 1010.4
20210514222105 82 342 2.0 5.0 0.00 0.00 0.00 33 1010.4
20210514222015 82 343 5.0 12.0 0.00 0.00 0.00 32 1010.5
20210514221605 82 343 5.0 12.0 0.00 0.00 0.00 32 1010.5
20210514221105 82 344 3.0 10.0 0.00 0.00 0.00 34 1010.6
20210514221014 82 349 6.0 12.0 0.00 0.00 0.00 34 1010.6
20210514220605 82 349 6.0 12.0 0.00 0.00 0.00 34 1010.6
20210514220106 81 266 1.0 8.0 0.00 0.00 0.00 34 1010.8
20210514220015 82 334 5.0 9.0 0.00 0.00 0.00 33 1010.8
20210514215605 82 334 5.0 9.0 0.00 0.00 0.00 33 1010.8
20210514215105 83 320 5.0 10.0 0.00 0.00 0.00 33 1010.9
20210514215015 81 81 1.0 12.0 0.00 0.00 0.00 33 1011.0
20210514214605 81 81 1.0 12.0 0.00 0.00 0.00 33 1011.0
20210514214105 82 351 3.0 9.0 0.00 0.00 0.00 33 1011.1
20210514214016 80 342 3.0 8.0 0.00 0.00 0.00 35 1011.2
20210514213605 80 342 3.0 8.0 0.00 0.00 0.00 35 1011.2
20210514213105 81 335 5.0 12.0 0.00 0.00 0.00 32 1011.3
20210514213015 81 320 6.0 12.0 0.00 0.00 0.00 33 1011.4
20210514212605 81 320 6.0 12.0 0.00 0.00 0.00 33 1011.4
20210514212106 81 317 2.0 9.0 0.00 0.00 0.00 36 1011.4
20210514212016 81 333 2.0 9.0 0.00 0.00 0.00 35 1011.4
20210514211605 81 333 2.0 9.0 0.00 0.00 0.00 35 1011.4
20210514211105 81 354 3.0 9.0 0.00 0.00 0.00 33 1011.5
20210514211016 80 309 3.0 10.0 0.00 0.00 0.00 38 1011.5
20210514210605 80 309 3.0 10.0 0.00 0.00 0.00 38 1011.5
20210514210105 81 349 3.0 8.0 0.00 0.00 0.00 35 1011.6
20210514210015 82 344 2.0 9.0 0.00 0.00 0.00 36 1011.7
20210514205605 82 344 2.0 9.0 0.00 0.00 0.00 36 1011.7
20210514205105 81 349 7.0 13.0 0.00 0.00 0.00 36 1011.7
20210514205015 80 12 3.0 9.0 0.00 0.00 0.00 38 1011.9
20210514204605 80 12 3.0 9.0 0.00 0.00 0.00 38 1011.9
20210514204105 80 54 4.0 12.0 0.00 0.00 0.00 33 1011.9
20210514204016 79 350 3.0 10.0 0.00 0.00 0.00 37 1011.9
20210514203605 79 350 3.0 10.0 0.00 0.00 0.00 37 1011.9
20210514203105 80 36 5.0 9.0 0.00 0.00 0.00 35 1012.0
20210514203015 79 17 3.0 7.0 0.00 0.00 0.00 36 1012.0
20210514202605 79 17 3.0 7.0 0.00 0.00 0.00 36 1012.0
20210514202106 79 19 2.0 5.0 0.00 0.00 0.00 39 1012.1
20210514202015 79 14 5.0 8.0 0.00 0.00 0.00 35 1012.2
20210514201606 79 14 5.0 8.0 0.00 0.00 0.00 35 1012.2
20210514201105 78 357 2.0 9.0 0.00 0.00 0.00 39 1012.4
20210514201014 78 11 3.0 9.0 0.00 0.00 0.00 40 1012.5
20210514200606 78 11 3.0 9.0 0.00 0.00 0.00 40 1012.5
20210514200105 78 42 2.0 6.0 0.00 0.00 0.00 39 1012.5
20210514200016 77 44 2.0 6.0 0.00 0.00 0.00 39 1012.7
20210514195606 77 44 2.0 6.0 0.00 0.00 0.00 39 1012.7
20210514195105 78 45 4.0 9.0 0.00 0.00 0.00 38 1012.8
20210514195014 78 62 4.0 6.0 0.00 0.00 0.00 40 1012.9
20210514194605 78 62 4.0 6.0 0.00 0.00 0.00 40 1012.9
20210514194105 79 70 2.0 8.0 0.00 0.00 0.00 41 1013.0
20210514194015 78 67 3.0 8.0 0.00 0.00 0.00 41 1013.1
20210514193606 78 67 3.0 8.0 0.00 0.00 0.00 41 1013.1
20210514193105 77 19 6.0 10.0 0.00 0.00 0.00 40 1013.1
20210514193015 76 21 2.0 9.0 0.00 0.00 0.00 38 1013.2
20210514192605 76 21 2.0 9.0 0.00 0.00 0.00 38 1013.2
20210514192105 75 56 2.0 7.0 0.00 0.00 0.00 44 1013.3
20210514192014 75 69 1.0 5.0 0.00 0.00 0.00 44 1013.5
20210514191605 75 69 1.0 5.0 0.00 0.00 0.00 44 1013.5
20210514191106 75 15 1.0 6.0 0.00 0.00 0.00 40 1013.6
20210514191015 75 6 5.0 10.0 0.00 0.00 0.00 41 1013.7
20210514190605 75 6 5.0 10.0 0.00 0.00 0.00 41 1013.7
20210514190105 75 24 1.0 3.0 0.00 0.00 0.00 44 1013.7
20210514190015 73 24 1.0 3.0 0.00 0.00 0.00 45 1013.7
20210514185605 73 24 1.0 3.0 0.00 0.00 0.00 45 1013.7
20210514185105 73 24 0.0 3.0 0.00 0.00 0.00 44 1013.9
20210514185014 74 25 3.0 10.0 0.00 0.00 0.00 41 1014.0
20210514184605 74 25 3.0 10.0 0.00 0.00 0.00 41 1014.0
20210514184105 72 49 1.0 5.0 0.00 0.00 0.00 46 1014.1
20210514184014 74 54 3.0 6.0 0.00 0.00 0.00 42 1014.1
20210514183605 74 54 3.0 6.0 0.00 0.00 0.00 42 1014.1
20210514183105 74 42 2.0 6.0 0.00 0.00 0.00 42 1014.1
20210514183014 73 21 3.0 6.0 0.00 0.00 0.00 45 1014.3
20210514182605 73 21 3.0 6.0 0.00 0.00 0.00 45 1014.3
20210514182105 73 14 5.0 9.0 0.00 0.00 0.00 42 1014.4
20210514182015 73 303 4.0 8.0 0.00 0.00 0.00 43 1014.3
20210514181606 73 303 4.0 8.0 0.00 0.00 0.00 43 1014.3
20210514181105 71 228 2.0 8.0 0.00 0.00 0.00 48 1014.4
20210514181015 71 8 4.0 9.0 0.00 0.00 0.00 48 1014.5
20210514180605 71 8 4.0 9.0 0.00 0.00 0.00 48 1014.5
20210514180106 71 266 3.0 8.0 0.00 0.00 0.00 49 1014.5
20210514180014 71 352 2.0 6.0 0.00 0.00 0.00 49 1014.5
20210514175605 71 352 2.0 6.0 0.00 0.00 0.00 49 1014.5
20210514175105 71 5 2.0 9.0 0.00 0.00 0.00 49 1014.5
20210514175014 71 357 2.0 6.0 0.00 0.00 0.00 52 1014.6
20210514174605 71 357 2.0 6.0 0.00 0.00 0.00 52 1014.6
20210514174105 70 359 3.0 5.0 0.00 0.00 0.00 50 1014.6
20210514174015 69 357 2.0 8.0 0.00 0.00 0.00 53 1014.6
20210514173605 69 357 2.0 8.0 0.00 0.00 0.00 53 1014.6
20210514173105 69 355 0.0 2.0 0.00 0.00 0.00 54 1014.7
20210514173015 70 355 5.0 10.0 0.00 0.00 0.00 51 1014.7
20210514172605 70 355 5.0 10.0 0.00 0.00 0.00 51 1014.7
20210514172105 70 40 1.0 5.0 0.00 0.00 0.00 51 1014.6
20210514172015 70 37 2.0 6.0 0.00 0.00 0.00 51 1014.7
20210514171606 70 37 2.0 6.0 0.00 0.00 0.00 51 1014.7
20210514171105 69 52 3.0 6.0 0.00 0.00 0.00 52 1014.8
20210514171014 67 350 0.0 2.0 0.00 0.00 0.00 58 1014.7
20210514170605 67 350 0.0 2.0 0.00 0.00 0.00 58 1014.7
20210514170105 68 348 0.0 3.0 0.00 0.00 0.00 56 1014.8
20210514170015 68 350 1.0 3.0 0.00 0.00 0.00 56 1014.8